| time (UTC) | temp C | wind direction | speed KPH | gust KPH | rain 1hr cm | rain 24hr cm | rain mn cm | humidity % | barometer mb |
| 20260904131742 | 28 | 127 | 6.4 | 11.3 | 0.00 | 0.79 | 0.79 | 90 | 1003.2 |
| 20260904131238 | 28 | 232 | 1.6 | 9.7 | 0.00 | 0.79 | 0.79 | 90 | 1003.0 |
| 20260904130732 | 28 | 66 | 9.7 | 20.9 | 0.00 | 0.79 | 0.79 | 89 | 1003.1 |
| 20260904130231 | 28 | 172 | 11.3 | 16.1 | 0.00 | 0.79 | 0.79 | 89 | 1003.1 |
| 20260904125728 | 28 | 115 | 9.7 | 22.5 | 0.00 | 0.79 | 0.79 | 89 | 1003.0 |
| 20260904125223 | 28 | 134 | 9.7 | 12.9 | 0.00 | 0.79 | 0.79 | 89 | 1003.0 |
| 20260904124717 | 28 | 155 | 6.4 | 9.7 | 0.00 | 0.79 | 0.79 | 89 | 1003.3 |
| 20260904124213 | 28 | 146 | 4.8 | 14.5 | 0.00 | 0.79 | 0.79 | 89 | 1003.2 |
| 20260904123709 | 28 | 149 | 4.8 | 16.1 | 0.00 | 0.79 | 0.79 | 89 | 1003.4 |
| 20260904123204 | 28 | 105 | 9.7 | 17.7 | 0.00 | 0.79 | 0.79 | 89 | 1003.4 |
| 20260904122658 | 28 | 124 | 6.4 | 12.9 | 0.00 | 0.79 | 0.79 | 90 | 1003.3 |
| 20260904122153 | 28 | 124 | 6.4 | 14.5 | 0.00 | 0.79 | 0.79 | 90 | 1003.2 |
| 20260904121648 | 28 | 199 | 8.0 | 12.9 | 0.00 | 0.79 | 0.79 | 90 | 1003.1 |
| 20260904121144 | 28 | 150 | 4.8 | 12.9 | 0.00 | 0.79 | 0.79 | 90 | 1003.3 |
| 20260904120640 | 28 | 153 | 8.0 | 11.3 | 0.00 | 0.79 | 0.79 | 89 | 1003.2 |
| 20260904120137 | 28 | 210 | 4.8 | 11.3 | 0.00 | 0.79 | 0.79 | 89 | 1003.4 |
| 20260904115637 | 28 | 125 | 4.8 | 14.5 | 0.00 | 0.79 | 0.79 | 89 | 1003.2 |
| 20260904115131 | 28 | 151 | 3.2 | 16.1 | 0.00 | 0.79 | 0.79 | 89 | 1003.2 |
| 20260904114626 | 28 | 189 | 6.4 | 17.7 | 0.00 | 0.79 | 0.79 | 89 | 1003.1 |
| 20260904114121 | 28 | 158 | 4.8 | 12.9 | 0.00 | 0.79 | 0.79 | 89 | 1003.1 |
| 20260904113620 | 28 | 173 | 1.6 | 9.7 | 0.00 | 0.79 | 0.79 | 89 | 1003.2 |
| 20260904113120 | 28 | 140 | 6.4 | 12.9 | 0.00 | 0.79 | 0.79 | 89 | 1002.8 |
| 20260904112616 | 28 | 189 | 4.8 | 12.9 | 0.00 | 0.79 | 0.79 | 89 | 1002.8 |
| 20260904112111 | 28 | 140 | 9.7 | 11.3 | 0.00 | 0.79 | 0.79 | 89 | 1002.9 |
| 20260904111606 | 28 | 158 | 4.8 | 14.5 | 0.00 | 0.79 | 0.79 | 89 | 1002.9 |
| 20260904111102 | 28 | 113 | 1.6 | 16.1 | 0.00 | 0.79 | 0.79 | 89 | 1003.0 |
| 20260904110556 | 28 | 109 | 1.6 | 12.9 | 0.00 | 0.79 | 0.79 | 89 | 1003.2 |
| 20260904110052 | 28 | 130 | 3.2 | 11.3 | 0.00 | 0.79 | 0.79 | 89 | 1003.1 |
| 20260904105551 | 28 | 101 | 3.2 | 11.3 | 0.00 | 0.79 | 0.79 | 89 | 1002.9 |
| 20260904105046 | 28 | 148 | 12.9 | 16.1 | 0.00 | 0.79 | 0.79 | 89 | 1002.9 |
| 20260904104542 | 28 | 207 | 9.7 | 14.5 | 0.00 | 0.79 | 0.79 | 88 | 1002.6 |
| 20260904104037 | 28 | 138 | 3.2 | 12.9 | 0.00 | 0.79 | 0.79 | 88 | 1002.7 |
| 20260904103533 | 28 | 106 | 0.0 | 9.7 | 0.00 | 0.79 | 0.79 | 88 | 1003.0 |
| 20260904103029 | 28 | 130 | 9.7 | 14.5 | 0.00 | 0.79 | 0.79 | 88 | 1002.9 |
| 20260904102525 | 28 | 151 | 3.2 | 6.4 | 0.00 | 0.79 | 0.79 | 88 | 1003.1 |
| 20260904102020 | 28 | 111 | 4.8 | 6.4 | 0.00 | 0.79 | 0.79 | 88 | 1002.9 |
| 20260904101517 | 28 | 151 | 1.6 | 11.3 | 0.00 | 0.79 | 0.79 | 88 | 1002.9 |
| 20260904101012 | 28 | 131 | 1.6 | 9.7 | 0.00 | 0.79 | 0.79 | 89 | 1003.0 |
| 20260904100507 | 28 | 143 | 3.2 | 11.3 | 0.00 | 0.79 | 0.79 | 89 | 1002.9 |
| 20260904100002 | 28 | 192 | 1.6 | 6.4 | 0.00 | 0.79 | 0.79 | 89 | 1003.1 |
| 20260904095456 | 28 | 146 | 3.2 | 9.7 | 0.00 | 0.79 | 0.79 | 89 | 1002.9 |
| 20260904094951 | 28 | 257 | 0.0 | 3.2 | 0.00 | 0.79 | 0.79 | 89 | 1002.6 |
| 20260904094446 | 28 | 35 | 1.6 | 6.4 | 0.00 | 0.79 | 0.79 | 89 | 1002.8 |
| 20260904093942 | 28 | 141 | 3.2 | 4.8 | 0.00 | 0.79 | 0.79 | 88 | 1002.8 |
| 20260904093438 | 28 | 173 | 3.2 | 11.3 | 0.00 | 0.79 | 0.79 | 88 | 1002.9 |
| 20260904092933 | 28 | 91 | 1.6 | 4.8 | 0.00 | 0.79 | 0.79 | 88 | 1002.8 |
| 20260904092429 | 28 | 118 | 1.6 | 3.2 | 0.00 | 0.79 | 0.79 | 88 | 1002.6 |
| 20260904091925 | 28 | 115 | 1.6 | 4.8 | 0.00 | 0.79 | 0.79 | 88 | 1002.8 |
| 20260904091420 | 28 | 143 | 3.2 | 6.4 | 0.00 | 0.79 | 0.79 | 88 | 1002.7 |
| 20260904090914 | 28 | 179 | 3.2 | 6.4 | 0.00 | 0.79 | 0.79 | 88 | 1002.9 |
| 20260904090411 | 28 | 257 | 1.6 | 3.2 | 0.00 | 0.79 | 0.79 | 88 | 1003.0 |
| 20260904085900 | 28 | 80 | 1.6 | 4.8 | 0.00 | 0.79 | 0.79 | 87 | 1002.9 |
| 20260904085355 | 28 | 226 | 3.2 | 6.4 | 0.00 | 0.79 | 0.79 | 87 | 1002.7 |
| 20260904084855 | 28 | 195 | 1.6 | 6.4 | 0.00 | 0.79 | 0.79 | 86 | 1002.6 |
| 20260904084351 | 29 | 174 | 3.2 | 3.2 | 0.00 | 0.79 | 0.79 | 86 | 1002.6 |
| 20260904083846 | 29 | 86 | 1.6 | 4.8 | 0.00 | 0.79 | 0.79 | 86 | 1002.5 |
| 20260904083343 | 29 | 62 | 3.2 | 11.3 | 0.00 | 0.79 | 0.79 | 85 | 1002.5 |
| 20260904082839 | 29 | 94 | 1.6 | 6.4 | 0.00 | 0.79 | 0.79 | 86 | 1002.6 |
| 20260904082333 | 29 | 179 | 3.2 | 6.4 | 0.00 | 0.79 | 0.79 | 85 | 1002.7 |
| 20260904081828 | 29 | 77 | 3.2 | 12.9 | 0.00 | 0.79 | 0.79 | 85 | 1002.6 |
| 20260904081324 | 29 | 80 | 3.2 | 4.8 | 0.00 | 0.79 | 0.79 | 85 | 1002.6 |
| 20260904080820 | 30 | 336 | 1.6 | 9.7 | 0.00 | 0.79 | 0.79 | 84 | 1002.7 |
| 20260904080315 | 30 | 148 | 3.2 | 4.8 | 0.00 | 0.79 | 0.79 | 84 | 1002.3 |
| 20260904075812 | 30 | 153 | 3.2 | 16.1 | 0.00 | 0.79 | 0.79 | 84 | 1002.6 |
| 20260904075312 | 30 | 158 | 3.2 | 6.4 | 0.00 | 0.79 | 0.79 | 84 | 1002.6 |
| 20260904074810 | 30 | 63 | 3.2 | 11.3 | 0.00 | 0.79 | 0.79 | 84 | 1002.6 |
| 20260904074306 | 30 | 267 | 6.4 | 14.5 | 0.00 | 0.79 | 0.79 | 82 | 1002.4 |
| 20260904073801 | 30 | 340 | 1.6 | 3.2 | 0.00 | 0.79 | 0.79 | 84 | 1002.3 |
| 20260904073257 | 30 | 102 | 1.6 | 4.8 | 0.00 | 0.79 | 0.79 | 85 | 1002.5 |
| 20260904072753 | 30 | 92 | 3.2 | 11.3 | 0.00 | 0.79 | 0.79 | 85 | 1002.5 |
| 20260904072252 | 30 | 336 | 3.2 | 4.8 | 0.00 | 0.79 | 0.79 | 86 | 1002.3 |
| 20260904071748 | 30 | 94 | 1.6 | 4.8 | 0.00 | 0.79 | 0.79 | 86 | 1002.5 |
| 20260904071243 | 30 | 160 | 8.0 | 11.3 | 0.00 | 0.79 | 0.79 | 85 | 1002.2 |
| 20260904070737 | 30 | 165 | 4.8 | 6.4 | 0.00 | 0.79 | 0.79 | 84 | 1002.7 |
| 20260904070236 | 30 | 82 | 1.6 | 6.4 | 0.00 | 0.79 | 0.79 | 84 | 1002.6 |
| 20260904065731 | 30 | 210 | 1.6 | 9.7 | 0.00 | 0.79 | 0.79 | 85 | 1002.5 |
| 20260904065228 | 30 | 344 | 6.4 | 14.5 | 0.00 | 0.79 | 0.79 | 84 | 1002.6 |
| 20260904064728 | 30 | 127 | 8.0 | 12.9 | 0.00 | 0.79 | 0.79 | 85 | 1002.9 |
| 20260904064223 | 30 | 111 | 3.2 | 16.1 | 0.00 | 0.79 | 0.79 | 86 | 1002.7 |
| 20260904063719 | 30 | 134 | 14.5 | 20.9 | 0.00 | 0.79 | 0.79 | 85 | 1002.7 |
| 20260904063215 | 30 | 121 | 9.7 | 17.7 | 0.00 | 0.79 | 0.79 | 85 | 1002.9 |
| 20260904062711 | 30 | 172 | 9.7 | 20.9 | 0.00 | 0.79 | 0.79 | 85 | 1002.9 |
| 20260904062206 | 30 | 314 | 4.8 | 12.9 | 0.00 | 0.79 | 0.79 | 86 | 1003.0 |
| 20260904061702 | 30 | 46 | 8.0 | 14.5 | 0.00 | 0.79 | 0.79 | 86 | 1003.1 |
| 20260904061158 | 29 | 250 | 4.8 | 11.3 | 0.00 | 0.79 | 0.79 | 87 | 1002.9 |
| 20260904060654 | 29 | 156 | 4.8 | 9.7 | 0.00 | 0.79 | 0.79 | 88 | 1002.9 |
| 20260904060150 | 28 | 76 | 6.4 | 16.1 | 0.00 | 0.79 | 0.79 | 87 | 1002.8 |
| 20260904055650 | 28 | 125 | 4.8 | 14.5 | 0.00 | 0.79 | 0.79 | 87 | 1002.9 |
| 20260904055145 | 28 | 139 | 3.2 | 17.7 | 0.00 | 0.79 | 0.79 | 88 | 1002.8 |
| 20260904054636 | 28 | 102 | 6.4 | 16.1 | 0.00 | 0.79 | 0.79 | 89 | 1002.8 |
| 20260904054132 | 28 | 106 | 3.2 | 9.7 | 0.00 | 0.79 | 0.79 | 91 | 1002.9 |
| 20260904053632 | 28 | 117 | 4.8 | 9.7 | 0.00 | 0.79 | 0.79 | 90 | 1003.0 |
| 20260904053126 | 28 | 181 | 1.6 | 1.6 | 0.00 | 0.79 | 0.79 | 92 | 1002.9 |
| 20260904052623 | 28 | 149 | 3.2 | 4.8 | 0.00 | 0.79 | 0.79 | 92 | 1002.9 |
| 20260904052119 | 28 | 121 | 1.6 | 3.2 | 0.00 | 0.79 | 0.79 | 92 | 1003.0 |
| 20260904051615 | 27 | 123 | 0.0 | 3.2 | 0.00 | 0.79 | 0.79 | 92 | 1003.1 |
| 20260904051114 | 27 | 169 | 0.0 | 1.6 | 2.29 | 0.79 | 0.79 | 91 | 1003.3 |
| 20260904050610 | 27 | 115 | 3.2 | 4.8 | 2.87 | 0.76 | 0.76 | 90 | 1003.2 |
| 20260904050107 | 28 | 83 | 6.4 | 9.7 | 0.71 | 0.41 | 0.41 | 86 | 1003.2 |
| 20260904045601 | 29 | 1 | 8.0 | 9.7 | 0.00 | 0.28 | 0.28 | 85 | 1003.2 |
| 20260904045056 | 30 | 97 | 1.6 | 4.8 | 0.00 | 0.28 | 0.28 | 83 | 1003.0 |
| 20260904044551 | 30 | 17 | 3.2 | 9.7 | 0.00 | 0.28 | 0.28 | 83 | 1003.0 |
| 20260904044048 | 30 | 133 | 12.9 | 16.1 | 0.00 | 0.28 | 0.28 | 82 | 1003.1 |
| 20260904043544 | 30 | 88 | 4.8 | 11.3 | 0.00 | 0.28 | 0.28 | 83 | 1003.4 |
| 20260904043039 | 30 | 119 | 11.3 | 12.9 | 0.00 | 0.28 | 0.28 | 83 | 1003.3 |
| 20260904042536 | 30 | 88 | 9.7 | 16.1 | 0.00 | 0.28 | 0.28 | 84 | 1003.5 |
| 20260904042031 | 30 | 149 | 6.4 | 16.1 | 0.00 | 0.28 | 0.28 | 84 | 1003.7 |
| 20260904041526 | 30 | 177 | 4.8 | 9.7 | 0.00 | 0.28 | 0.28 | 84 | 1003.6 |
| 20260904041022 | 30 | 139 | 3.2 | 16.1 | 0.00 | 0.28 | 0.28 | 84 | 1003.6 |
| 20260904040522 | 30 | 160 | 6.4 | 12.9 | 0.00 | 0.28 | 0.28 | 83 | 1003.4 |
| 20260904040020 | 30 | 102 | 8.0 | 16.1 | 0.00 | 0.28 | 0.28 | 85 | 1003.5 |
| 20260904035519 | 30 | 94 | 3.2 | 9.7 | 0.00 | 0.28 | 0.28 | 85 | 1003.4 |
| 20260904035019 | 30 | 65 | 6.4 | 11.3 | 0.00 | 0.28 | 0.28 | 85 | 1003.6 |
| 20260904034514 | 30 | 109 | 1.6 | 12.9 | 0.00 | 0.28 | 0.28 | 86 | 1003.5 |
| 20260904034009 | 30 | 188 | 3.2 | 12.9 | 0.00 | 0.28 | 0.28 | 86 | 1003.8 |
| 20260904033505 | 30 | 151 | 4.8 | 14.5 | 0.00 | 0.28 | 0.28 | 86 | 1003.8 |
| 20260904033002 | 30 | 131 | 6.4 | 16.1 | 0.00 | 0.28 | 0.28 | 86 | 1003.7 |
| 20260904032457 | 30 | 139 | 6.4 | 14.5 | 0.00 | 0.28 | 0.28 | 87 | 1003.8 |
| 20260904031955 | 30 | 130 | 3.2 | 11.3 | 0.00 | 0.28 | 0.28 | 87 | 1003.8 |
| 20260904031451 | 29 | 120 | 6.4 | 11.3 | 0.00 | 0.28 | 0.28 | 88 | 1003.9 |
| 20260904030947 | 30 | 127 | 4.8 | 11.3 | 0.00 | 0.28 | 0.28 | 88 | 1004.0 |
| 20260904030443 | 30 | 148 | 3.2 | 11.3 | 0.00 | 0.28 | 0.28 | 88 | 1004.1 |
| 20260904025937 | 29 | 153 | 3.2 | 12.9 | 0.00 | 0.28 | 0.28 | 89 | 1004.2 |
| 20260904025434 | 29 | 126 | 3.2 | 4.8 | 0.30 | 0.28 | 0.28 | 90 | 1004.2 |
| 20260904024928 | 29 | 89 | 3.2 | 4.8 | 0.30 | 0.28 | 0.28 | 89 | 1004.1 |
| 20260904024424 | 29 | 82 | 0.0 | 6.4 | 0.00 | 0.23 | 0.23 | 88 | 1004.1 |
| 20260904023919 | 29 | 130 | 3.2 | 12.9 | 0.00 | 0.23 | 0.23 | 89 | 1004.1 |
| 20260904023416 | 29 | 184 | 4.8 | 14.5 | 0.18 | 0.23 | 0.23 | 88 | 1004.1 |
| 20260904022915 | 30 | 88 | 11.3 | 16.1 | 0.18 | 0.23 | 0.23 | 87 | 1004.2 |
| 20260904022412 | 30 | 112 | 3.2 | 11.3 | 0.00 | 0.20 | 0.20 | 85 | 1004.1 |
| 20260904021908 | 30 | 79 | 4.8 | 12.9 | 0.00 | 0.20 | 0.20 | 84 | 1004.2 |
| 20260904021403 | 30 | 148 | 11.3 | 14.5 | 0.00 | 0.20 | 0.20 | 83 | 1004.0 |
| 20260904020858 | 30 | 230 | 3.2 | 6.4 | 0.00 | 0.20 | 0.20 | 83 | 1004.0 |
| 20260904020353 | 30 | 175 | 4.8 | 6.4 | 0.00 | 0.20 | 0.20 | 83 | 1003.9 |
| 20260904015852 | 30 | 135 | 1.6 | 14.5 | 0.00 | 0.20 | 0.20 | 83 | 1004.1 |
| 20260904015347 | 30 | 151 | 9.7 | 17.7 | 0.00 | 0.20 | 0.20 | 84 | 1004.0 |
| 20260904014845 | 30 | 147 | 8.0 | 14.5 | 0.00 | 0.20 | 0.20 | 84 | 1004.2 |
| 20260904014335 | 30 | 134 | 8.0 | 12.9 | 0.00 | 0.20 | 0.20 | 85 | 1004.0 |
| 20260904013831 | 30 | 136 | 3.2 | 20.9 | 0.00 | 0.20 | 0.20 | 84 | 1004.1 |
| 20260904013326 | 30 | 161 | 11.3 | 16.1 | 0.00 | 0.20 | 0.20 | 84 | 1004.0 |
| 20260904012822 | 30 | 173 | 12.9 | 17.7 | 0.00 | 0.20 | 0.20 | 84 | 1004.3 |
| 20260904012317 | 30 | 108 | 6.4 | 20.9 | 0.00 | 0.20 | 0.20 | 84 | 1004.2 |
| 20260904011816 | 30 | 103 | 3.2 | 12.9 | 0.00 | 0.20 | 0.20 | 85 | 1004.4 |
| 20260904011311 | 30 | 126 | 6.4 | 17.7 | 0.00 | 0.20 | 0.20 | 84 | 1004.4 |
| 20260904010811 | 30 | 127 | 8.0 | 16.1 | 0.00 | 0.20 | 0.20 | 85 | 1004.4 |
| 20260904010308 | 30 | 110 | 8.0 | 20.9 | 0.00 | 0.20 | 0.20 | 85 | 1004.5 |
| 20260904005803 | 30 | 153 | 8.0 | 17.7 | 0.00 | 0.20 | 0.20 | 85 | 1004.5 |
| 20260904005259 | 30 | 150 | 11.3 | 14.5 | 0.00 | 0.20 | 0.20 | 84 | 1004.4 |
| 20260904004754 | 30 | 123 | 6.4 | 11.3 | 0.00 | 0.20 | 0.20 | 85 | 1004.4 |
| 20260904004249 | 30 | 136 | 8.0 | 16.1 | 0.00 | 0.20 | 0.20 | 84 | 1004.4 |
| 20260904003745 | 30 | 110 | 6.4 | 11.3 | 0.00 | 0.20 | 0.20 | 84 | 1004.4 |
| 20260904003241 | 30 | 127 | 6.4 | 17.7 | 0.00 | 0.20 | 0.20 | 85 | 1004.5 |
| 20260904002736 | 30 | 161 | 9.7 | 12.9 | 0.00 | 0.20 | 0.20 | 85 | 1004.3 |
| 20260904002232 | 30 | 141 | 4.8 | 16.1 | 0.00 | 0.20 | 0.20 | 86 | 1004.4 |
| 20260904001726 | 30 | 113 | 6.4 | 16.1 | 0.00 | 0.20 | 0.20 | 86 | 1004.5 |
| 20260904001225 | 30 | 244 | 3.2 | 11.3 | 0.00 | 0.20 | 0.20 | 86 | 1004.4 |
| 20260904000720 | 29 | 169 | 6.4 | 16.1 | 0.00 | 0.20 | 0.20 | 87 | 1004.1 |
| 20260904000215 | 29 | 138 | 6.4 | 14.5 | 0.00 | 0.20 | 0.20 | 87 | 1004.2 |
| 20260903235715 | 29 | 112 | 4.8 | 16.1 | 0.00 | 0.20 | 0.20 | 87 | 1004.2 |
| 20260903235212 | 29 | 166 | 11.3 | 22.5 | 0.00 | 0.20 | 0.20 | 87 | 1004.2 |
| 20260903234706 | 29 | 181 | 6.4 | 17.7 | 0.00 | 0.20 | 0.20 | 88 | 1004.1 |
| 20260903234203 | 29 | 149 | 11.3 | 14.5 | 0.00 | 0.20 | 0.20 | 88 | 1004.1 |
| 20260903233658 | 29 | 115 | 9.7 | 14.5 | 0.00 | 0.20 | 0.20 | 89 | 1004.1 |
| 20260903233154 | 28 | 185 | 4.8 | 16.1 | 0.18 | 0.20 | 0.20 | 90 | 1004.1 |
| 20260903232653 | 28 | 143 | 3.2 | 14.5 | 0.18 | 0.20 | 0.20 | 90 | 1004.1 |
| 20260903232149 | 28 | 126 | 6.4 | 12.9 | 0.00 | 0.18 | 0.18 | 90 | 1003.9 |
| 20260903231648 | 28 | 137 | 3.2 | 12.9 | 0.00 | 0.18 | 0.18 | 91 | 1003.9 |
| 20260903231143 | 28 | 160 | 6.4 | 11.3 | 0.00 | 0.18 | 0.18 | 91 | 1003.9 |
| 20260903230639 | 28 | 141 | 6.4 | 14.5 | 0.00 | 0.18 | 0.18 | 91 | 1003.8 |
| 20260903230138 | 28 | 116 | 6.4 | 6.4 | 0.00 | 0.18 | 0.18 | 91 | 1003.6 |
| 20260903225635 | 28 | 90 | 8.0 | 11.3 | 0.00 | 0.18 | 0.18 | 92 | 1003.6 |
| 20260903225131 | 28 | 128 | 3.2 | 4.8 | 0.00 | 0.18 | 0.18 | 93 | 1003.6 |
| 20260903224627 | 28 | 112 | 1.6 | 4.8 | 0.00 | 0.18 | 0.18 | 93 | 1003.6 |
| 20260903224123 | 28 | 87 | 3.2 | 9.7 | 0.00 | 0.18 | 0.18 | 93 | 1003.6 |
| 20260903223618 | 28 | 124 | 3.2 | 12.9 | 0.00 | 0.18 | 0.18 | 93 | 1003.8 |
| 20260903223116 | 28 | 140 | 1.6 | 4.8 | 0.00 | 0.18 | 0.18 | 93 | 1003.7 |
| 20260903222612 | 28 | 146 | 3.2 | 14.5 | 0.00 | 0.18 | 0.18 | 93 | 1003.6 |
| 20260903222110 | 28 | 158 | 8.0 | 12.9 | 0.00 | 0.18 | 0.18 | 93 | 1003.6 |
| 20260903221606 | 28 | 129 | 4.8 | 9.7 | 0.00 | 0.18 | 0.18 | 93 | 1003.5 |
| 20260903221104 | 28 | 159 | 6.4 | 12.9 | 0.00 | 0.18 | 0.18 | 93 | 1003.4 |
| 20260903220603 | 28 | 97 | 1.6 | 9.7 | 0.00 | 0.18 | 0.18 | 93 | 1003.4 |
| 20260903215602 | 28 | 110 | 3.2 | 11.3 | 0.00 | 0.18 | 0.18 | 93 | 1003.3 |
| 20260903215101 | 28 | 104 | 12.9 | 17.7 | 0.00 | 0.18 | 0.18 | 93 | 1003.4 |
| 20260903214555 | 28 | 203 | 11.3 | 20.9 | 0.00 | 0.18 | 0.18 | 93 | 1003.4 |
| 20260903214050 | 28 | 137 | 9.7 | 11.3 | 0.00 | 0.18 | 0.18 | 93 | 1003.2 |
| 20260903213545 | 27 | 160 | 4.8 | 12.9 | 0.00 | 0.18 | 0.18 | 93 | 1003.1 |
| 20260903213041 | 28 | 155 | 6.4 | 11.3 | 0.00 | 0.18 | 0.18 | 93 | 1003.2 |
| 20260903212537 | 27 | 139 | 1.6 | 3.2 | 0.00 | 0.18 | 0.18 | 93 | 1003.3 |
| 20260903212032 | 28 | 194 | 3.2 | 9.7 | 0.00 | 0.18 | 0.18 | 93 | 1002.9 |
| 20260903211527 | 28 | 134 | 11.3 | 14.5 | 0.00 | 0.18 | 0.18 | 93 | 1003.1 |
| 20260903211024 | 28 | 200 | 3.2 | 9.7 | 0.00 | 0.18 | 0.18 | 94 | 1002.9 |
| 20260903210518 | 27 | 83 | 4.8 | 9.7 | 0.00 | 0.18 | 0.18 | 93 | 1003.0 |
| 20260903210014 | 27 | 176 | 3.2 | 11.3 | 0.00 | 0.18 | 0.18 | 93 | 1003.0 |
| 20260903205508 | 27 | 126 | 0.0 | 6.4 | 0.00 | 0.18 | 0.18 | 93 | 1002.8 |
| 20260903205003 | 27 | 120 | 3.2 | 14.5 | 0.00 | 0.18 | 0.18 | 93 | 1003.0 |
| 20260903204459 | 27 | 167 | 4.8 | 9.7 | 0.00 | 0.18 | 0.18 | 93 | 1002.7 |
| 20260903203954 | 27 | 62 | 8.0 | 12.9 | 0.00 | 0.18 | 0.18 | 93 | 1002.8 |
| 20260903203450 | 27 | 258 | 1.6 | 14.5 | 0.00 | 0.18 | 0.18 | 93 | 1002.6 |
| 20260903202949 | 27 | 131 | 3.2 | 9.7 | 0.00 | 0.18 | 0.18 | 93 | 1002.5 |
| 20260903202445 | 27 | 115 | 8.0 | 16.1 | 0.00 | 0.18 | 0.18 | 93 | 1002.6 |
| 20260903201944 | 27 | 136 | 3.2 | 12.9 | 0.00 | 0.18 | 0.18 | 93 | 1002.6 |
| 20260903201440 | 27 | 170 | 9.7 | 14.5 | 0.00 | 0.18 | 0.18 | 93 | 1002.5 |
| 20260903200938 | 27 | 148 | 8.0 | 12.9 | 0.00 | 0.18 | 0.18 | 93 | 1002.4 |
| 20260903200434 | 27 | 107 | 4.8 | 12.9 | 0.00 | 0.18 | 0.18 | 93 | 1002.4 |
| 20260903195929 | 27 | 250 | 6.4 | 17.7 | 0.00 | 0.18 | 0.18 | 93 | 1002.4 |
| 20260903195425 | 27 | 133 | 9.7 | 12.9 | 0.00 | 0.18 | 0.18 | 94 | 1002.4 |
| 20260903194920 | 27 | 122 | 4.8 | 11.3 | 0.00 | 0.18 | 0.18 | 94 | 1002.2 |
| 20260903194416 | 27 | 152 | 4.8 | 11.3 | 0.00 | 0.18 | 0.18 | 94 | 1002.4 |
| 20260903193911 | 27 | 93 | 3.2 | 6.4 | 0.00 | 0.18 | 0.18 | 94 | 1002.5 |
| 20260903193408 | 27 | 103 | 1.6 | 6.4 | 0.00 | 0.18 | 0.18 | 94 | 1002.1 |
| 20260903192902 | 27 | 122 | 1.6 | 9.7 | 0.00 | 0.18 | 0.18 | 94 | 1002.5 |
| 20260903192358 | 27 | 54 | 1.6 | 6.4 | 0.00 | 0.18 | 0.18 | 94 | 1002.3 |
| 20260903191854 | 27 | 101 | 4.8 | 6.4 | 0.00 | 0.18 | 0.18 | 94 | 1002.1 |
| 20260903191349 | 27 | 110 | 3.2 | 4.8 | 0.13 | 0.18 | 0.18 | 94 | 1002.3 |
| 20260903190849 | 27 | 147 | 14.5 | 20.9 | 0.13 | 0.18 | 0.18 | 94 | 1002.2 |
| 20260903190343 | 27 | 112 | 4.8 | 16.1 | 0.00 | 0.15 | 0.15 | 94 | 1002.1 |
| 20260903185838 | 27 | 129 | 14.5 | 20.9 | 0.00 | 0.15 | 0.15 | 94 | 1002.2 |
| 20260903185333 | 27 | 185 | 6.4 | 12.9 | 0.00 | 0.15 | 0.15 | 94 | 1002.1 |
| 20260903184829 | 27 | 202 | 3.2 | 11.3 | 0.00 | 0.15 | 0.15 | 94 | 1002.1 |
| 20260903184325 | 27 | 136 | 8.0 | 16.1 | 0.00 | 0.15 | 0.15 | 93 | 1002.2 |
| 20260903183820 | 27 | 150 | 3.2 | 11.3 | 0.00 | 0.15 | 0.15 | 93 | 1002.2 |
| 20260903183314 | 27 | 184 | 3.2 | 9.7 | 0.79 | 0.15 | 0.15 | 93 | 1002.1 |
| 20260903182813 | 27 | 214 | 9.7 | 17.7 | 0.79 | 0.15 | 0.15 | 92 | 1001.9 |
| 20260903182307 | 27 | 113 | 3.2 | 6.4 | 0.13 | 0.03 | 0.03 | 92 | 1001.8 |
| 20260903181807 | 28 | 218 | 9.7 | 16.1 | 0.13 | 0.03 | 0.03 | 91 | 1002.0 |
| 20260903181302 | 28 | 159 | 8.0 | 12.9 | 0.00 | 0.00 | 0.00 | 91 | 1002.0 |
| 20260903180758 | 28 | 91 | 4.8 | 11.3 | 0.00 | 0.00 | 0.00 | 91 | 1002.1 |
| 20260903180257 | 28 | 104 | 8.0 | 16.1 | 0.00 | 0.00 | 0.00 | 91 | 1002.1 |
| 20260903175756 | 28 | 134 | 9.7 | 12.9 | 0.00 | 0.00 | 0.00 | 91 | 1002.2 |
| 20260903175255 | 28 | 166 | 11.3 | 17.7 | 0.00 | 0.00 | 0.00 | 91 | 1002.2 |
| 20260903174754 | 28 | 87 | 1.6 | 16.1 | 0.00 | 0.00 | 0.00 | 91 | 1002.1 |
| 20260903174250 | 28 | 92 | 8.0 | 12.9 | 0.00 | 0.00 | 0.00 | 91 | 1002.2 |
| 20260903173745 | 28 | 165 | 9.7 | 14.5 | 0.00 | 0.00 | 0.00 | 91 | 1002.0 |
| 20260903173241 | 28 | 167 | 11.3 | 22.5 | 0.00 | 0.00 | 0.00 | 92 | 1001.8 |
| 20260903172736 | 28 | 126 | 8.0 | 16.1 | 0.00 | 0.00 | 0.00 | 92 | 1002.2 |
| 20260903172231 | 28 | 132 | 8.0 | 14.5 | 0.00 | 0.00 | 0.00 | 92 | 1002.2 |
| 20260903171726 | 28 | 190 | 4.8 | 16.1 | 0.00 | 0.00 | 0.00 | 91 | 1002.2 |
| 20260903171222 | 28 | 145 | 8.0 | 12.9 | 0.00 | 0.00 | 0.00 | 91 | 1001.9 |
| 20260903170720 | 28 | 118 | 9.7 | 16.1 | 0.00 | 0.00 | 0.00 | 91 | 1002.1 |
| 20260903170216 | 28 | 169 | 8.0 | 17.7 | 0.00 | 0.00 | 0.00 | 91 | 1002.3 |
| 20260903165713 | 27 | 111 | 16.1 | 17.7 | 0.00 | 0.00 | 0.00 | 91 | 1002.3 |
| 20260903165209 | 27 | 148 | 9.7 | 16.1 | 0.00 | 0.00 | 0.00 | 91 | 1002.2 |
| 20260903164703 | 27 | 71 | 12.9 | 25.7 | 0.00 | 0.00 | 0.00 | 91 | 1002.3 |
| 20260903164159 | 27 | 149 | 4.8 | 14.5 | 0.00 | 0.00 | 0.00 | 92 | 1002.4 |
| 20260903163659 | 27 | 139 | 6.4 | 16.1 | 0.00 | 0.00 | 0.00 | 92 | 1002.2 |
| 20260903163155 | 27 | 173 | 14.5 | 20.9 | 0.00 | 0.00 | 0.00 | 92 | 1002.1 |
| 20260903162651 | 27 | 197 | 4.8 | 16.1 | 0.00 | 0.00 | 0.00 | 92 | 1002.1 |
| 20260903162147 | 27 | 95 | 6.4 | 12.9 | 0.00 | 0.00 | 0.00 | 92 | 1002.2 |
| 20260903161642 | 27 | 139 | 11.3 | 20.9 | 0.00 | 0.00 | 0.00 | 91 | 1002.2 |
| 20260903161132 | 27 | 115 | 3.2 | 6.4 | 0.00 | 0.00 | 0.00 | 91 | 1002.3 |
| 20260903160627 | 27 | 54 | 3.2 | 9.7 | 0.00 | 0.00 | 0.00 | 91 | 1002.1 |
| 20260903160127 | 27 | 125 | 4.8 | 16.1 | 0.00 | 0.00 | 0.00 | 91 | 1002.1 |
| 20260903155626 | 27 | 146 | 12.9 | 17.7 | 0.00 | 0.00 | 0.00 | 91 | 1002.3 |
| 20260903155121 | 27 | 59 | 4.8 | 20.9 | 0.00 | 0.00 | 0.00 | 90 | 1002.3 |
| 20260903154617 | 27 | 81 | 3.2 | 11.3 | 0.00 | 0.00 | 0.00 | 90 | 1002.3 |
| 20260903154113 | 27 | 130 | 6.4 | 17.7 | 0.00 | 0.00 | 0.00 | 90 | 1002.3 |
| 20260903153603 | 27 | 151 | 8.0 | 24.1 | 0.00 | 0.00 | 0.00 | 91 | 1002.3 |
| 20260903153058 | 27 | 111 | 8.0 | 11.3 | 0.00 | 0.00 | 0.00 | 92 | 1002.2 |
| 20260903152554 | 27 | 99 | 6.4 | 12.9 | 0.00 | 0.00 | 0.00 | 92 | 1002.1 |
| 20260903152050 | 27 | 176 | 8.0 | 16.1 | 0.00 | 0.00 | 0.00 | 92 | 1002.2 |
| 20260903151549 | 27 | 198 | 6.4 | 12.9 | 0.00 | 0.00 | 0.00 | 93 | 1002.0 |
| 20260903151044 | 27 | 182 | 4.8 | 9.7 | 0.00 | 0.00 | 0.00 | 93 | 1002.1 |
| 20260903150538 | 27 | 122 | 3.2 | 11.3 | 0.00 | 0.00 | 0.00 | 92 | 1002.0 |
| 20260903150034 | 27 | 184 | 4.8 | 11.3 | 0.00 | 2.90 | 2.90 | 92 | 1002.1 |
| 20260903145528 | 27 | 104 | 6.4 | 14.5 | 0.00 | 2.90 | 2.90 | 92 | 1002.0 |
| 20260903145024 | 27 | 75 | 11.3 | 24.1 | 0.00 | 2.90 | 2.90 | 92 | 1001.9 |
| 20260903144522 | 27 | 157 | 17.7 | 24.1 | 0.00 | 2.90 | 2.90 | 92 | 1002.1 |
| 20260903144019 | 27 | 91 | 11.3 | 24.1 | 0.00 | 2.90 | 2.90 | 92 | 1002.0 |
| 20260903143515 | 27 | 113 | 6.4 | 24.1 | 0.00 | 2.90 | 2.90 | 93 | 1002.0 |
| 20260903143010 | 27 | 153 | 11.3 | 17.7 | 0.18 | 2.90 | 2.90 | 93 | 1002.1 |
| 20260903142505 | 27 | 193 | 9.7 | 20.9 | 0.18 | 2.90 | 2.90 | 93 | 1002.0 |
| 20260903142002 | 27 | 132 | 11.3 | 25.7 | 0.00 | 2.87 | 2.87 | 93 | 1001.9 |
| 20260903141457 | 27 | 122 | 9.7 | 16.1 | 0.00 | 2.87 | 2.87 | 93 | 1001.9 |
| 20260903140952 | 27 | 136 | 9.7 | 24.1 | 0.00 | 2.87 | 2.87 | 93 | 1001.9 |
| 20260903140448 | 27 | 105 | 6.4 | 16.1 | 0.00 | 2.87 | 2.87 | 93 | 1002.0 |
| 20260903135943 | 27 | 149 | 12.9 | 16.1 | 0.00 | 2.87 | 2.87 | 93 | 1001.9 |
| 20260903135438 | 27 | 166 | 8.0 | 14.5 | 0.00 | 2.87 | 2.87 | 94 | 1001.8 |
| 20260903134933 | 27 | 119 | 4.8 | 12.9 | 0.00 | 2.87 | 2.87 | 94 | 1002.0 |
| 20260903134432 | 27 | 145 | 3.2 | 4.8 | 0.00 | 2.87 | 2.87 | 93 | 1001.9 |
| 20260903133929 | 27 | 163 | 11.3 | 25.7 | 0.00 | 2.87 | 2.87 | 94 | 1002.1 |
| 20260903133426 | 27 | 154 | 9.7 | 24.1 | 0.00 | 2.87 | 2.87 | 93 | 1002.0 |
| 20260903132921 | 27 | 122 | 6.4 | 14.5 | 0.30 | 2.87 | 2.87 | 93 | 1002.0 |
| 20260903132416 | 27 | 226 | 3.2 | 11.3 | 0.43 | 2.87 | 2.87 | 93 | 1001.8 |